DW5210 Weather Reports


Display with metric or nautical units.
time (UTC)temp
F
wind
direction
speed
MPH
gust
MPH
rain 1hr
in
rain 24hr
in
rain mn
in
humidity
%
barometer
mb
20190221000505 46 197 5.0 10.0 0.00 0.00 0.00 91 1021.6
20190221000015 46 198 6.0 13.0 0.00 0.00 0.00 91 1021.6
20190220233014 46 195 6.0 10.0 0.00 0.00 0.00 92 1021.6
20190220230014 46 199 6.0 15.0 0.00 0.00 0.00 92 1021.1
20190220223504 46 205 5.0 12.0 0.00 0.00 0.00 92 1021.1
20190220223014 45 211 6.0 12.0 0.00 0.00 0.00 92 1021.1
20190220220504 45 199 4.0 12.0 0.00 0.00 0.00 92 1021.0
20190220220014 45 196 3.0 12.0 0.00 0.00 0.00 92 1021.0
20190220213504 46 195 5.0 13.0 0.00 0.00 0.00 92 1020.9
20190220213014 46 195 6.0 13.0 0.00 0.00 0.00 92 1020.8
20190220210014 46 189 5.0 13.0 0.00 0.00 0.00 92 1020.9
20190220203504 46 207 7.0 14.0 0.00 0.00 0.00 92 1020.7
20190220203014 46 200 6.0 14.0 0.00 0.00 0.00 92 1020.7
20190220200504 46 203 3.0 9.0 0.00 0.00 0.00 91 1020.9
20190220200014 46 203 3.0 9.0 0.00 0.00 0.00 91 1020.8
20190220193504 46 205 5.0 12.0 0.00 0.00 0.00 90 1020.5
20190220193014 46 208 4.0 10.0 0.00 0.00 0.00 90 1020.5
20190220190505 47 211 4.0 9.0 0.00 0.00 0.00 89 1020.4
20190220180505 48 210 4.0 10.0 0.00 0.00 0.00 87 1019.8
20190220180016 48 212 5.0 10.0 0.00 0.00 0.00 87 1019.8
20190220173504 49 207 5.0 13.0 0.00 0.00 0.00 85 1019.5
20190220170504 50 219 3.0 10.0 0.00 0.00 0.00 84 1019.5
20190220170016 50 219 3.0 12.0 0.00 0.00 0.00 84 1019.5
20190220163504 50 224 3.0 9.0 0.00 0.00 0.00 84 1019.5
20190220163016 50 225 3.0 9.0 0.00 0.00 0.00 83 1019.5
20190220160505 51 223 3.0 12.0 0.00 0.00 0.00 82 1019.5
20190220160020 51 220 4.0 13.0 0.00 0.00 0.00 82 1019.5
20190220153504 51 220 7.0 17.0 0.00 0.00 0.00 81 1019.5
20190220150017 52 208 5.0 12.0 0.00 0.00 0.00 80 1019.1
20190220143505 53 209 6.0 17.0 0.00 0.00 0.00 78 1019.1
20190220143018 53 200 7.0 17.0 0.00 0.00 0.00 78 1019.1
20190220140505 52 240 9.0 15.0 0.00 0.00 0.00 77 1019.2
20190220133505 53 229 7.0 21.0 0.00 0.00 0.00 76 1019.2
20190220123504 51 255 6.0 17.0 0.00 0.00 0.00 83 1019.4
20190220123016 51 239 7.0 17.0 0.00 0.00 0.00 82 1019.4
20190220120504 51 243 7.0 16.0 0.00 0.00 0.00 84 1019.2
20190220113505 50 238 4.0 13.0 0.00 0.00 0.00 87 1019.4
20190220113019 50 231 5.0 13.0 0.00 0.00 0.00 88 1019.4
20190220110508 49 248 5.0 15.0 0.00 0.00 0.00 88 1019.4
20190220103504 48 250 5.0 14.0 0.00 0.00 0.00 89 1019.0
20190220103015 48 230 5.0 14.0 0.00 0.00 0.00 89 1019.0
20190220100505 47 218 6.0 15.0 0.00 0.00 0.00 90 1018.9
20190220100015 47 228 4.0 13.0 0.00 0.00 0.00 90 1018.9
20190220093504 47 221 6.0 17.0 0.00 0.00 0.00 91 1018.7
20190220090505 46 226 6.0 14.0 0.00 0.00 0.00 91 1018.5
20190220090017 46 229 5.0 14.0 0.00 0.00 0.00 91 1018.4
20190220083505 45 216 5.0 18.0 0.00 0.00 0.00 91 1018.2
20190220083017 45 226 7.0 15.0 0.00 0.00 0.00 91 1018.0
20190220080504 45 195 3.0 14.0 0.00 0.00 0.00 91 1017.9
20190220080015 45 198 6.0 14.0 0.00 0.00 0.00 91 1017.9
20190220073504 45 203 6.0 14.0 0.00 0.00 0.00 91 1017.9
20190220073016 45 198 6.0 14.0 0.00 0.00 0.00 91 1017.9
20190220070504 45 198 4.0 15.0 0.00 0.00 0.00 92 1017.7
20190220070014 45 205 6.0 15.0 0.00 0.00 0.00 92 1017.6
20190220063504 45 197 6.0 15.0 0.00 0.00 0.00 92 1017.4
20190220063014 45 226 3.0 13.0 0.00 0.00 0.00 92 1017.4
20190220060505 45 215 5.0 14.0 0.00 0.00 0.00 92 1017.4
20190220060015 45 219 6.0 12.0 0.00 0.00 0.00 92 1017.4
20190220053504 46 197 5.0 13.0 0.00 0.00 0.00 92 1017.3
20190220053014 46 205 5.0 15.0 0.00 0.00 0.00 92 1017.3
20190220050504 46 204 6.0 17.0 0.00 0.00 0.00 92 1017.1
20190220050014 46 203 5.0 14.0 0.00 0.00 0.00 92 1017.1
20190220043504 46 205 5.0 12.0 0.00 0.00 0.00 93 1017.3
20190220033504 45 199 4.0 13.0 0.00 0.00 0.00 92 1017.2
20190220030015 45 201 5.0 12.0 0.00 0.00 0.00 92 1017.4
20190220023504 45 202 3.0 14.0 0.00 0.00 0.00 92 1017.5
20190220023014 45 202 5.0 14.0 0.00 0.00 0.00 92 1017.5
20190220020504 45 199 5.0 14.0 0.00 0.01 0.00 91 1017.8
20190220020015 45 203 6.0 14.0 0.00 0.01 0.00 91 1017.8
20190220013504 44 200 6.0 13.0 0.00 0.01 0.00 90 1017.9
20190220010014 44 191 6.0 12.0 0.00 0.01 0.00 90 1017.9
20190220003014 44 190 5.0 13.0 0.00 0.01 0.00 89 1017.9